Location: Newark
(41.8083°N, 72.2500°W)
Time: 22:02:23
(UTC+00:00)

SR - All Passes

Search period start: 06 December 2021 00:00
Search period end: 16 December 2021 00:00
Orbit: 583 x 871 km, 66.7° (Epoch: 06 December)

Date Brightness Start Highest point End Pass type
(mag) Time Alt. Az. Time Alt. Az. Time Alt. Az.
06 Dec - 02:55:46 10° S 02:59:57 34° ESE 03:03:55 10° NE night (unlit)
06 Dec - 04:38:07 10° WSW 04:41:58 27° NW 04:45:39 10° N night (unlit)
06 Dec - 11:35:34 10° N 11:39:17 27° NE 11:43:07 10° ESE daylight
06 Dec - 13:17:20 10° NW 13:21:16 33° WSW 13:25:25 10° S daylight
07 Dec - 02:07:36 10° SE 02:10:20 16° ESE 02:12:59 10° ENE night (unlit)
07 Dec - 03:47:26 10° SW 03:51:57 54° WNW 03:56:13 10° NNE night (unlit)
07 Dec - 10:46:38 10° N 10:49:04 15° NE 10:51:34 10° ENE visible
07 Dec - 12:27:11 10° NNW 12:31:32 75° WSW 12:36:09 10° SSE daylight
08 Dec - 02:57:29 10° SSW 03:02:05 69° ESE 03:06:25 10° NE night (unlit)
08 Dec - 04:41:50 10° W 04:44:29 15° NW 04:47:06 10° N night (unlit)
08 Dec - 11:37:25 10° NNW 11:41:39 50° NE 11:46:08 10° SE daylight
08 Dec - 13:20:28 10° WNW 13:23:18 17° WSW 13:26:14 10° SSW daylight
09 Dec - 02:08:17 10° S 02:12:21 31° ESE 02:16:13 10° NE night (unlit)
09 Dec - 03:50:23 10° WSW 03:54:19 28° NW 03:58:05 10° N night (unlit)
09 Dec - 10:48:00 10° N 10:51:38 25° NE 10:55:23 10° ESE visible
09 Dec - 12:29:38 10° NW 12:33:40 36° WSW 12:37:56 10° S daylight
10 Dec - 01:20:20 10° SE 01:22:45 14° ESE 01:25:06 10° ENE night (unlit)
10 Dec - 02:59:48 10° SW 03:04:19 58° WNW 03:08:36 10° NNE night (unlit)
10 Dec - 09:59:09 10° NNE 10:01:24 14° NE 10:03:42 10° ENE visible
10 Dec - 11:39:31 10° NNW 11:43:55 81° WSW 11:48:34 10° SSE daylight
11 Dec - 02:09:55 10° SSW 02:14:28 63° ESE 02:18:46 10° NE night (unlit)
11 Dec - 03:54:01 10° W 03:56:49 16° NW 03:59:35 10° N night (unlit)
11 Dec - 10:49:48 10° NNW 10:54:02 46° NE 10:58:28 10° SE visible
11 Dec - 12:32:39 10° WNW 12:35:43 18° WSW 12:38:54 10° SSW daylight
12 Dec - 01:20:49 10° S 01:24:46 28° ESE 01:28:30 10° NE night (unlit)
12 Dec - 03:02:40 10° WSW 03:06:40 30° NW 03:10:31 10° N night (unlit)
12 Dec - 10:00:26 10° N 10:03:58 24° NE 10:07:39 10° ESE visible
12 Dec - 11:41:57 10° NW 11:46:04 39° WSW 11:50:26 10° S daylight
13 Dec - 00:33:08 10° SE 00:35:10 13° ESE 00:37:09 10° E night (unlit)
13 Dec - 02:12:09 10° SW 02:16:41 64° WNW 02:20:59 10° NNE night (unlit)
13 Dec - 09:11:41 10° NNE 09:13:43 13° NE 09:15:49 10° ENE visible
13 Dec - 10:51:53 10° NNW 10:56:17 88° WSW 11:00:58 10° SSE visible
14 Dec - 01:22:21 10° SSW 01:26:51 58° ESE 01:31:07 10° NE night (unlit)
14 Dec - 03:06:11 10° W 03:09:09 17° NW 03:12:03 10° N night (unlit)
14 Dec - 10:02:11 10° NNW 10:06:23 43° NE 10:10:48 10° SE visible
14 Dec - 11:44:51 10° WNW 11:48:07 20° WSW 11:51:32 10° SSW daylight
15 Dec - 00:33:22 10° SSE 00:37:08 26° ESE 00:40:45 10° NE night (unlit)
15 Dec - 02:14:57 10° WSW 02:19:01 32° NW 02:22:54 10° NNE night (unlit)
15 Dec - 09:12:51 10° N 09:16:19 22° NE 09:19:54 10° E visible
15 Dec - 10:54:15 10° NW 10:58:27 43° WSW 11:02:55 10° S visible
15 Dec - 23:46:02 10° SE 23:47:34 12° ESE 23:49:06 10° E night (unlit)
